Baku, Azerbaijan

3:04 PM +04 on December 11, 2018 (GMT +0400)
Bina

Weather History for UBBB - March, 2018

Change the Weather History Date:

Friday, March 30, 2018

  Actual Average Record
Temperature  
Mean Temperature 49 °F -  
Max Temperature 57 °F - - ()
Min Temperature 41 °F - - ()
Degree Days  
Heating Degree Days 16    
Moisture  
Dew Point 41 °F    
Average Humidity 82    
Maximum Humidity 93    
Minimum Humidity 65    
Precipitation  
Precipitation 0.01 in - - ()
Sea Level Pressure  
Sea Level Pressure 29.83 in    
Wind  
Wind Speed 23 mph ()    
Max Wind Speed 45 mph    
Max Gust Speed 56 mph    
Visibility 6.2 miles    
Events Rain    
T = Trace of Precipitation, MM = Missing Value Source: Averaged Metar Reports

Daily Weather History Graph

Daily Weather History Graph

Search for Another Location

Airport or City:

Astronomy

Mar. 30, 2018 Rise Set
Actual Time 6:27 AM +04 7:01 PM +04
Civil Twilight 5:59 AM +04 7:29 PM +04
Nautical Twilight 5:27 AM +04 8:01 PM +04
Astronomical Twilight 4:54 AM +04 8:35 PM +04
Moon 5:52 PM +04 (3/30) 6:02 AM +04 (3/30)
Length of Visible Light 13h 29m
Length of Day
12h 34m
Waxing Gibbous, 98% of the Moon is Illuminated
Mar 30
Waxing Gibbous
Mar 31
Full
Apr 8
Last Quarter
Apr 16
New
Apr 23
First Quarter

Hourly Weather History & Observations

Time (+04) Temp. Windchill Dew Point Humidity Pressure Visibility Wind Dir Wind Speed Gust Speed Precip Events Conditions
12:00 AM 50.0 °F - 44.6 °F 82% 29.56 in - NW 6.9 mph - N/A   Clear
12:30 AM 48.2 °F - 44.6 °F 87% 29.56 in - NW 13.8 mph - N/A   Clear
1:00 AM 47 °F - 43 °F 79% 29.56 in 6 mi West 6.7 mph - -   Overcast
1:00 AM 48.2 °F - 44.6 °F 87% 29.56 in - NW 9.2 mph - N/A   Clear
1:30 AM 48.2 °F - 44.6 °F 87% 29.53 in - WNW 8.1 mph - N/A   Clear
2:00 AM 48.2 °F - 44.6 °F 87% 29.53 in - NW 3.5 mph - N/A   Clear
2:30 AM 48.2 °F - 44.6 °F 87% 29.53 in - Variable 2.3 mph - N/A   Clear
3:00 AM 50.0 °F - 44.6 °F 82% 29.53 in - Variable 2.3 mph - N/A   Clear
4:00 AM 47 °F - 43 °F 79% 29.64 in 6 mi West 29.1 mph - -   Overcast
4:00 AM 46.4 °F 37.9 °F 44.6 °F 93% 29.65 in 6.2 mi NW 25.3 mph 38.0 mph N/A   Overcast
4:30 AM 46.4 °F 38.1 °F 44.6 °F 93% 29.65 in 6.2 mi NW 24.2 mph 35.7 mph N/A   Overcast
5:00 AM 48.2 °F - 44.6 °F 87% 29.68 in 6.2 mi NW 24.2 mph 35.7 mph N/A   Overcast
5:30 AM 48.2 °F - 44.6 °F 87% 29.71 in - NW 25.3 mph 36.8 mph N/A   Clear
6:00 AM 48.2 °F - 44.6 °F 87% 29.74 in 6.2 mi NW 23.0 mph 34.5 mph N/A   Overcast
6:30 AM 46.4 °F 37.7 °F 44.6 °F 93% 29.77 in 6.2 mi NW 26.5 mph 38.0 mph N/A Rain Light Rain
7:00 AM 46.4 °F 37.4 °F 42.8 °F 87% 29.74 in 6.2 mi NW 28.8 mph 42.6 mph N/A   Overcast
7:30 AM 46.4 °F 37.0 °F 41.0 °F 81% 29.74 in - NW 31.1 mph 42.6 mph N/A   Clear
8:00 AM 48.2 °F - 41.0 °F 76% 29.77 in - NW 31.1 mph 43.7 mph N/A   Clear
8:30 AM 48.2 °F - 41.0 °F 76% 29.80 in - NNW 34.5 mph 46.0 mph N/A   Clear
9:00 AM 48.2 °F - 39.2 °F 71% 29.80 in - NNW 31.1 mph 43.7 mph N/A   Clear
9:30 AM 48.2 °F - 39.2 °F 71% 29.83 in - NW 31.1 mph 42.6 mph N/A   Clear
10:00 AM 47 °F - 39 °F 65% 29.87 in 6 mi WNW 40.3 mph - -   Partly Cloudy
10:00 AM 48.2 °F - 39.2 °F 71% 29.86 in - NW 33.4 mph 44.9 mph N/A   Clear
10:30 AM 46.4 °F 36.4 °F 39.2 °F 76% 29.86 in 6.2 mi NNW 35.7 mph 48.3 mph N/A   Overcast
11:00 AM 46.4 °F 36.5 °F 41.0 °F 81% 29.86 in 6.2 mi NNW 34.5 mph 48.3 mph N/A   Overcast
11:30 AM 46.4 °F 36.0 °F 41.0 °F 81% 29.86 in 6.2 mi NNW 39.1 mph 50.6 mph N/A   Overcast
12:00 PM 46.4 °F 36.5 °F 41.0 °F 81% 29.86 in 6.2 mi NNW 34.5 mph 51.8 mph N/A   Overcast
12:30 PM 46.4 °F 36.3 °F 41.0 °F 81% 29.86 in 6.2 mi NNW 36.8 mph 50.6 mph N/A   Overcast
1:00 PM 47 °F - 39 °F 66% 29.87 in 6 mi WNW 40.3 mph - -   Overcast
1:00 PM 48.2 °F - 39.2 °F 71% 29.89 in - NNW 34.5 mph 46.0 mph N/A   Clear
1:30 PM 48.2 °F - 39.2 °F 71% 29.86 in - NNW 35.7 mph 47.2 mph N/A   Clear
2:00 PM 46.4 °F 36.7 °F 39.2 °F 76% 29.86 in - NNW 33.4 mph 47.2 mph N/A   Clear
2:30 PM 46.4 °F 36.7 °F 41.0 °F 81% 29.86 in 6.2 mi NNW 33.4 mph 47.2 mph N/A   Overcast
3:00 PM 46.4 °F 36.5 °F 41.0 °F 81% 29.86 in 6.2 mi NNW 34.5 mph 48.3 mph N/A   Overcast
3:30 PM 46.4 °F 36.1 °F 41.0 °F 81% 29.86 in 6.2 mi NNW 38.0 mph 51.8 mph N/A   Overcast
4:00 PM 45 °F - 40 °F 75% 29.88 in 6 mi NW 42.5 mph - -   Overcast
4:00 PM 46.4 °F 36.1 °F 41.0 °F 81% 29.86 in 6.2 mi NNW 38.0 mph 50.6 mph N/A   Overcast
4:30 PM 46.4 °F 36.0 °F 41.0 °F 81% 29.86 in 6.2 mi NNW 39.1 mph 55.2 mph N/A   Overcast
5:00 PM 44.6 °F 34.4 °F 41.0 °F 87% 29.92 in 6.2 mi NNW 32.2 mph 43.7 mph N/A Rain Light Rain
5:30 PM 44.6 °F 33.9 °F 41.0 °F 87% 29.92 in 6.2 mi NNW 35.7 mph 51.8 mph N/A   Overcast
6:00 PM 44.6 °F 33.9 °F 41.0 °F 87% 29.95 in 6.2 mi NNW 35.7 mph 47.2 mph N/A   Overcast
6:30 PM 44.6 °F 33.8 °F 41.0 °F 87% 29.95 in 6.2 mi NNW 36.8 mph 48.3 mph N/A   Overcast
7:00 PM 44 °F - 39 °F 78% 29.97 in 6 mi WNW 40.3 mph - -   Overcast
7:00 PM 44.6 °F 33.5 °F 39.2 °F 81% 29.95 in 6.2 mi NNW 39.1 mph 50.6 mph N/A   Overcast
7:30 PM 44.6 °F 32.8 °F 39.2 °F 81% 29.95 in 6.2 mi NNW 44.9 mph 56.4 mph N/A   Overcast
8:00 PM 44.6 °F 33.3 °F 39.2 °F 81% 29.98 in 6.2 mi NNW 40.3 mph 51.8 mph N/A   Overcast
8:30 PM 44.6 °F 32.9 °F 39.2 °F 81% 30.01 in 6.2 mi NNW 43.7 mph 55.2 mph N/A   Overcast
9:00 PM 42.8 °F 31.1 °F 39.2 °F 87% 30.04 in 6.2 mi NNW 38.0 mph 50.6 mph N/A Rain Light Rain Showers
9:30 PM 42.8 °F 30.3 °F 39.2 °F 87% 30.04 in 6.2 mi NNW 44.9 mph 56.4 mph N/A Rain Light Rain Showers
10:00 PM 41 °F - 38 °F 85% 30.06 in 6 mi WNW 38.0 mph - -   Overcast
10:00 PM 41.0 °F 28.6 °F 39.2 °F 93% 30.06 in 6.2 mi NNW 38.0 mph 49.5 mph N/A Rain Light Rain Showers
10:30 PM 41.0 °F 29.3 °F 37.4 °F 87% 30.06 in 6.2 mi NNW 33.4 mph 44.9 mph N/A   Overcast
11:00 PM 41.0 °F 29.0 °F 37.4 °F 87% 30.06 in 6.2 mi NNW 35.7 mph 47.2 mph N/A Rain Light Rain Showers
11:30 PM 41.0 °F 29.0 °F 37.4 °F 87% 30.09 in 6.2 mi NNW 35.7 mph 47.2 mph N/A   Overcast